TimePDT,TemperatureF,Dew PointF,Humidity,Sea Level PressureIn,VisibilityMPH,Wind Direction,Wind SpeedMPH,Gust SpeedMPH,PrecipitationIn,Events,Conditions,WindDirDegrees,DateUTC
12:15 AM,50.0,37.4,62,29.97,10.0,NW,11.5,-,N/A,,Clear,310,2013-10-13 07:15:00
12:35 AM,50.0,35.6,58,29.97,10.0,West,12.7,-,N/A,,Clear,270,2013-10-13 07:35:00
12:55 AM,51.8,33.8,50,29.97,10.0,West,17.3,-,N/A,,Clear,260,2013-10-13 07:55:00
1:15 AM,53.6,33.8,47,29.97,10.0,WNW,12.7,-,N/A,,Clear,300,2013-10-13 08:15:00
1:35 AM,53.6,33.8,47,29.97,10.0,NNW,13.8,20.7,N/A,,Clear,330,2013-10-13 08:35:00
1:55 AM,50.0,35.6,58,29.96,10.0,WNW,11.5,-,N/A,,Clear,300,2013-10-13 08:55:00
2:15 AM,48.2,35.6,62,29.96,10.0,West,8.1,-,N/A,,Clear,280,2013-10-13 09:15:00
2:35 AM,46.4,35.6,66,29.96,10.0,West,9.2,-,N/A,,Clear,280,2013-10-13 09:35:00
2:55 AM,46.4,33.8,62,29.96,10.0,West,9.2,-,N/A,,Clear,270,2013-10-13 09:55:00
3:15 AM,48.2,35.6,62,29.95,10.0,West,9.2,-,N/A,,Clear,270,2013-10-13 10:15:00
3:35 AM,46.4,35.6,66,29.94,10.0,NW,3.5,-,N/A,,Clear,310,2013-10-13 10:35:00
3:55 AM,46.4,35.6,66,29.95,10.0,West,6.9,-,N/A,,Clear,260,2013-10-13 10:55:00
4:15 AM,44.6,35.6,71,29.95,9.0,West,8.1,-,N/A,,Clear,260,2013-10-13 11:15:00
4:35 AM,44.6,35.6,71,29.95,9.0,West,6.9,-,N/A,,Clear,270,2013-10-13 11:35:00
4:55 AM,44.6,35.6,71,29.95,9.0,NW,6.9,-,N/A,,Clear,320,2013-10-13 11:55:00
5:15 AM,46.4,35.6,66,29.95,10.0,WNW,5.8,-,N/A,,Clear,300,2013-10-13 12:15:00
5:35 AM,46.4,35.6,66,29.95,10.0,WNW,4.6,-,N/A,,Clear,290,2013-10-13 12:35:00
5:55 AM,50.0,35.6,58,29.95,10.0,NNW,5.8,-,N/A,,Clear,340,2013-10-13 12:55:00
6:15 AM,48.2,35.6,62,29.96,10.0,North,6.9,-,N/A,,Clear,350,2013-10-13 13:15:00
6:35 AM,46.4,35.6,66,29.96,10.0,NW,4.6,-,N/A,,Clear,310,2013-10-13 13:35:00
6:55 AM,44.6,35.6,71,29.96,9.0,NW,6.9,-,N/A,,Clear,310,2013-10-13 13:55:00
7:15 AM,44.6,35.6,71,29.97,8.0,WSW,4.6,-,N/A,,Clear,250,2013-10-13 14:15:00
7:35 AM,46.4,35.6,66,29.98,8.0,West,4.6,-,N/A,,Clear,280,2013-10-13 14:35:00
7:55 AM,48.2,35.6,62,29.99,8.0,WNW,5.8,-,N/A,,Clear,290,2013-10-13 14:55:00
8:15 AM,50.0,35.6,58,29.99,10.0,NW,6.9,-,N/A,,Clear,310,2013-10-13 15:15:00
8:55 AM,50.0,35.6,58,30.01,9.0,West,16.1,19.6,N/A,,Clear,260,2013-10-13 15:55:00
9:15 AM,50.0,35.6,58,30.01,8.0,West,15.0,-,N/A,,Clear,260,2013-10-13 16:15:00
9:35 AM,50.0,35.6,58,30.01,9.0,West,17.3,-,N/A,,Clear,270,2013-10-13 16:35:00
9:55 AM,51.8,35.6,54,30.01,9.0,West,15.0,-,N/A,,Clear,270,2013-10-13 16:55:00
10:15 AM,53.6,35.6,51,30.02,8.0,WNW,12.7,-,N/A,,Clear,290,2013-10-13 17:15:00
10:35 AM,53.6,35.6,51,30.02,8.0,WNW,12.7,-,N/A,,Clear,290,2013-10-13 17:35:00
10:55 AM,53.6,37.4,54,30.02,9.0,NW,15.0,19.6,N/A,,Clear,320,2013-10-13 17:55:00
11:15 AM,55.4,35.6,47,30.02,5.0,NW,15.0,18.4,N/A,,Haze,320,2013-10-13 18:15:00
11:35 AM,55.4,35.6,47,30.02,8.0,NW,17.3,-,N/A,,Clear,320,2013-10-13 18:35:00
11:55 AM,55.4,33.8,44,30.02,9.0,NW,15.0,21.9,N/A,,Clear,310,2013-10-13 18:55:00
12:15 PM,55.4,33.8,44,30.02,9.0,NW,16.1,20.7,N/A,,Clear,320,2013-10-13 19:15:00
12:35 PM,57.2,32.0,38,30.02,9.0,NW,16.1,21.9,N/A,,Clear,310,2013-10-13 19:35:00
12:55 PM,57.2,32.0,38,30.02,9.0,NW,17.3,23.0,N/A,,Clear,310,2013-10-13 19:55:00
1:15 PM,57.2,32.0,38,30.02,9.0,NW,17.3,24.2,N/A,,Clear,310,2013-10-13 20:15:00
1:35 PM,57.2,33.8,41,30.01,10.0,NW,20.7,-,N/A,,Clear,310,2013-10-13 20:35:00
1:55 PM,57.2,33.8,41,30.01,8.0,NW,19.6,25.3,N/A,,Clear,310,2013-10-13 20:55:00
2:15 PM,57.2,32.0,38,30.01,10.0,NW,18.4,24.2,N/A,,Clear,310,2013-10-13 21:15:00
2:35 PM,57.2,33.8,41,30.01,9.0,NW,18.4,24.2,N/A,,Clear,320,2013-10-13 21:35:00
2:55 PM,57.2,33.8,41,30.01,10.0,NW,19.6,24.2,N/A,,Clear,320,2013-10-13 21:55:00
3:15 PM,57.2,33.8,41,30.02,10.0,NNW,19.6,23.0,N/A,,Clear,330,2013-10-13 22:15:00
3:35 PM,57.2,35.6,44,30.02,10.0,NW,17.3,21.9,N/A,,Clear,310,2013-10-13 22:35:00
3:55 PM,55.4,33.8,44,30.02,10.0,NW,16.1,24.2,N/A,,Clear,320,2013-10-13 22:55:00
4:15 PM,55.4,35.6,47,30.02,10.0,NW,15.0,-,N/A,,Clear,320,2013-10-13 23:15:00
4:35 PM,55.4,35.6,47,30.02,10.0,NW,18.4,23.0,N/A,,Clear,310,2013-10-13 23:35:00
4:55 PM,55.4,35.6,47,30.03,10.0,NW,17.3,24.2,N/A,,Clear,310,2013-10-13 23:55:00
5:15 PM,55.4,35.6,47,30.03,9.0,NW,13.8,-,N/A,,Clear,320,2013-10-14 00:15:00
5:35 PM,53.6,35.6,51,30.04,9.0,NW,16.1,-,N/A,,Clear,320,2013-10-14 00:35:00
5:55 PM,53.6,35.6,51,30.04,10.0,NW,16.1,20.7,N/A,,Clear,310,2013-10-14 00:55:00
6:15 PM,51.8,35.6,54,30.05,10.0,NW,9.2,-,N/A,,Clear,310,2013-10-14 01:15:00
6:35 PM,50.0,35.6,58,30.06,9.0,WNW,9.2,-,N/A,,Clear,300,2013-10-14 01:35:00
6:55 PM,50.0,35.6,58,30.07,10.0,NW,4.6,-,N/A,,Clear,320,2013-10-14 01:55:00
7:15 PM,48.2,35.6,62,30.07,10.0,NW,5.8,-,N/A,,Clear,310,2013-10-14 02:15:00
7:35 PM,48.2,35.6,62,30.08,10.0,WNW,4.6,-,N/A,,Clear,290,2013-10-14 02:35:00
7:55 PM,48.2,35.6,62,30.08,10.0,WNW,4.6,-,N/A,,Clear,290,2013-10-14 02:55:00
8:15 PM,46.4,33.8,62,30.09,10.0,West,5.8,-,N/A,,Clear,280,2013-10-14 03:15:00
8:35 PM,46.4,33.8,62,30.09,10.0,NNW,3.5,-,N/A,,Clear,330,2013-10-14 03:35:00
8:55 PM,46.4,33.8,62,30.10,10.0,Calm,Calm,-,N/A,,Clear,0,2013-10-14 03:55:00
9:15 PM,44.6,33.8,66,30.10,10.0,Calm,Calm,-,N/A,,Clear,0,2013-10-14 04:15:00
9:35 PM,44.6,35.6,71,30.10,10.0,Calm,Calm,-,N/A,,Clear,0,2013-10-14 04:35:00
9:55 PM,42.8,35.6,76,30.11,10.0,Calm,Calm,-,N/A,,Clear,0,2013-10-14 04:55:00
10:15 PM,42.8,35.6,76,30.11,10.0,Calm,Calm,-,N/A,,Clear,0,2013-10-14 05:15:00
10:35 PM,41.0,35.6,81,30.12,10.0,Calm,Calm,-,N/A,,Clear,0,2013-10-14 05:35:00
10:55 PM,39.2,33.8,81,30.12,10.0,Calm,Calm,-,N/A,,Clear,0,2013-10-14 05:55:00
11:15 PM,39.2,33.8,81,30.13,10.0,Calm,Calm,-,N/A,,Clear,0,2013-10-14 06:15:00
11:35 PM,39.2,33.8,81,30.12,10.0,Calm,Calm,-,N/A,,Clear,0,2013-10-14 06:35:00
11:55 PM,37.4,32.0,81,30.13,10.0,SE,3.5,-,N/A,,Clear,140,2013-10-14 06:55:00